Back to race calendar

SSAFA 10k, Cartmel, Cumbria

27th April 2014

(This is a sortable table - click column heading) Results courtesy of Steve Ashcroft
Filter (choose one only!)
Surname:
Cat: Club:
PosNumForenameSurnameCatClubTime
169JohnRockeMAberdeen university00:35:44
268RussellParringtonM 00:38:42
3132PaulGregoryMWesham RR00:39:26
4125AndrewMeskimmonMV50Dewsbury RR00:39:53
586HarveyLordMBlack Combe Runners00:40:08
6130CharlieLowtherMEden Runners00:41:23
791ClaytonNobleMV45Walney Wind Cheaters00:42:22
815IanSadlerMV45Barrow & Furness Striders00:42:38
9126GordonJohnstoneM 00:43:58
1060ChristopherSnellMKendal AC00:44:15
11135GrahamJacksonM 00:44:42
1289StuartWrightMParkside Panthers00:44:45
13131MichelleLiddleFV45 00:45:42
1463JadeGilchristFParkside Panthers00:46:53
1583KarenWaggio PoyntzFV40Walney Wind Cheaters00:47:07
1649GaryWoodhouseMV40Parkside Panthers00:47:22
17122SarahGrisdaleFParkside Panthers00:47:22
1832IanJonesMV55Walney Wind Cheaters00:47:39
19119JohnMcIntoshMV55Rossendale Harriers00:47:50
2053StevenHartleMParkside Panthers00:48:11
21105EmmaGrahamFV35St Bees Triers00:48:22
22118DavidGormanMV50Skipton AC00:48:52
23127MikeCooperMV40Barrow & Furness Striders00:49:15
24137StevenSingletonMV40 00:50:06
25129JakeCooperMU16Barrow & Furness Striders00:50:26
26115StephenWhittinghamMV50 00:50:33
27121PhilipHorrocksMV45Hoad Hill Harriers00:50:56
2843AlanCollierMV50 00:51:11
2997IanStandingMV50Duddon Dragons00:51:24
3098AnnemaneAlmondFV40Cumbria Police AC00:51:26
3176MarkLowtherMV50 00:52:04
3225KarenOldhamFV45Parkside Panthers00:52:05
33123TracyPotterFParkside Panthers00:52:17
345JeffMcCullyMV45Walney Wind Cheaters00:52:45
3519CharlieO HaraMU16Walney Wind Cheaters00:53:05
36106JohnGreenwoodMV55Walney Wind Cheaters00:53:08
37109DianeStretchFWalney Wind Cheaters00:53:14
38134Steven JamesWalkerM 00:53:29
3939LauraBagleyFWalney Wind Cheaters00:53:38
4093StuartWallaceMV40Duddon Dragons00:53:54
4184RodSmithMV60Bentham Beagales00:54:06
4262PeterCookeMV55Wesham RR00:54:15
4378NeilTewkesburyMV40 00:54:18
4470ElizabethRockeFV55Dallam RC00:54:23
4523YvonneMorrellFV40 00:54:38
46101LaurenHoylandFU16Walney Wind Cheaters00:54:41
47120LynnMurrayFV40Barrow & Furness Striders00:54:46
4888AmySingletonF 00:55:02
4951EuanNaylorM 00:55:05
5082AnnaDonohueFU20Walney Wind Cheaters00:55:14
5179DaynaDavidsonFV40 00:55:24
5259LindsayBuckFV50Cumberland Fell Runners00:55:28
53136HarveyCooperMU16Barrow & Furness Striders00:55:37
54133DerekArmstrongMV55Kendal AC00:55:42
5567LindsayBurrowsF 00:56:02
5661PaulHughesMV40 00:56:17
5752BenSmithersM 00:56:19
5887ColinMayeeMV45 00:56:21
5918KarenBennettFV40Walney Wind Cheaters00:56:33
6038HelenGillibrandFV40 00:56:36
612AnnStempFV45 00:56:36
623DavidMorrisMV45 00:56:49
6340BrendaBagleyFV55Walney Wind Cheaters00:56:58
6434ChrisBellMV45Walney Wind Cheaters00:57:02
6524PaulMarshallM 00:57:20
66128GeorgiaCooperFU16Barrow & Furness Striders00:57:22
671CatherineGrisdaleFV55 00:57:35
686JoannaBarnardFV40 00:57:53
6947DeanCollierM 00:58:14
7026PaulaHerbertFV45Walney Wind Cheaters00:58:45
7111JeffCrosthwaiteMV55Parkside Panthers00:59:25
72113KathleenRobertshawFV70Otley AC00:59:36
73114JackRobertshawMV70Otley AC00:59:36
7464SarahStephensonFV35 01:00:03
754MarieMorrisFV45 01:00:03
7635BerlindaHeyesFV40 01:00:24
7755MandyCrabtreeFV45Walney Wind Cheaters01:00:25
7857JustinBatesMV40Walney Wind Cheaters01:00:31
7921SuzanneBoyleFV40 01:00:31
8044ClaireButterworthFParkside Panthers01:00:33
8185HughMcKennaM 01:00:34
8272ChrisKnowlesMV50 01:00:49
8346#JonReedMV40Parkside Panthers01:00:56
8445ShaunConwayMV45Parkside Panthers01:01:12
8592TrinaGilchristFV45 01:01:24
8690ChrisGuestMV40Parkside Panthers01:01:25
8714DarrenCurtisMV45Walney Wind Cheaters01:01:30
8831MichelleScott-McCulloughFV50Parkside Panthers01:01:47
899SallyHeartyFV45Parkside Panthers01:01:55
9050ValFlemingFV55Walney Wind Cheaters01:02:08
9175AshleighBennettFDuddon Dragons01:02:19
9230MichaelCookMV50Walney Wind Cheaters01:04:01
9329LouiseCookFV45Walney Wind Cheaters01:04:02
9458AllyWhiteF 01:04:12
95107ClareGreenwoodFV55Walney Wind Cheaters01:04:39
9654SandraCreaseFV50Walney Wind Cheaters01:04:42
97117LindaWilliamsFV60Northern Vets AC01:05:34
9810DavidAitkenMV50Parkside Panthers01:06:04
9996DavidFarishMV55Parkside Panthers01:06:08
10080SusanBirkbyFV60Parkside Panthers01:06:35
10195JohnMcKnightMV40Duddon Dragons01:06:51
102124StephenNewbyMV45Duddon Dragons01:06:51
10328AlisonSheildsFV35Walney Wind Cheaters01:07:16
104110StephanieGilliesFV45Hoad Hill Harriers01:07:33
105111JaneLoweFV45Walney Wind Cheaters01:07:34
106104JulieClarkFV40Walney Wind Cheaters01:07:34
10720ChristopherO HareMV45Walney Wind Cheaters01:07:52
10841AimeeGoodingsFParkside Panthers01:07:56
10942MichelleShawFParkside Panthers01:07:56
11066MontseAuladellF 01:08:09
111112RuthHaughianFV55Walney Wind Cheaters01:08:14
1128SonjaFosterFV40Parkside Panthers01:08:14
11333KathrynBellFU16Walney Wind Cheaters01:08:20
11473KerryChappleF 01:08:41
11565ClairePatersonFV45Walney Wind Cheaters01:08:52
1167GreigLisaFV40Walney Wind Cheaters01:11:22
11727MichelleMcAveeneyFV45Walney Wind Cheaters01:12:08
11881DianeDonohueFV45Walney Wind Cheaters01:12:11
11936JulieWoodburnFV40 01:12:43
12037HelenBarlowFV40 01:12:43
12117MichaelaNicholsonFV45Walney Wind Cheaters01:13:33
122116ClaireWhittinghamF 01:16:28
12371LouiseStoreyFV45Parkside Panthers01:16:29
124108DebbieAbnettFV40Walney Wind Cheaters01:17:03
12574LyndseyCroasdaleFDuddon Dragons01:18:23
126138NameNoF 01:18:23
12713ZarinaCretneyFV55 01:20:31
12812JanetCarrollFV50 01:20:31
12948DanielleEdwardsF 01:22:03
130139NameNoF 01:22:20
13122KimberleyEcclesFWalney Wind Cheaters01:25:18
132102LauraJones-BarnesFWalney Wind Cheaters01:25:18
13394JavenWallaceM 01:28:09
13499SarahWilsonFParkside Panthers01:33:40
135100MargaretHadleyFV60Parkside Panthers01:33:54

Back to year index - Top of page